RH
16 16 18 21 24 26 28 29 29 30 30 29 28 27 27 28 28 24 19 17 16 16 15 15 14 13 12 12 12 12 12 11 11 10 10 10 9 9 8 8 8 8 8 9 9 9 10 10 10 9 9 10 12 13 12 13 12 11 11 11 11 11 10 10 11 10 11 12 12 13 13 13 13 26 36 32 36 39 39 41 40 38 36 37 38 37 39 40
14 15 16 18 23 26 28 30 30 32 31 31 29 28 27 27 28 26 22 18 17 17 16 16 15 14 12 12 12 12 12 11 11 11 11 12 11 10 9 9 8 8 9 10 10 10 9 9 10 9 9 11 13 13 12 13 13 11 12 11 11 11 10 11 11 10 12 12 13 13 13 13 12 21 31 28 33 37 37 40 40 40 39 38 39 39 39 40
11 13 14 16 19 24 27 29 31 32 32 31 30 28 28 27 28 26 23 20 18 18 17 16 15 15 13 12 12 12 12 12 12 13 14 14 13 11 10 9 9 9 11 11 10 9 9 9 10 9 10 12 13 13 12 13 13 12 12 12 11 12 11 11 11 11 12 13 14 14 13 13 11 16 25 27 30 34 34 38 39 39 40 40 40 39 39 41
10 11 13 14 16 19 24 28 30 31 32 32 31 29 28 28 28 28 27 23 20 19 18 17 16 15 14 13 13 13 13 14 14 14 16 16 15 12 10 10 10 11 12 11 10 9 9 9 9 10 11 13 13 13 12 12 13 12 11 12 12 12 11 11 12 11 12 14 15 14 14 13 12 14 21 26 27 27 28 31 32 33 38 39 38 39 40 42
10 10 11 12 14 15 18 23 27 29 31 32 31 31 29 28 28 28 28 27 24 22 20 19 18 16 15 14 14 14 13 16 18 17 17 18 17 15 13 11 11 12 13 12 11 9 9 10 10 11 12 12 13 12 12 12 12 12 12 12 12 12 12 11 11 11 11 13 15 15 15 13 14 15 20 24 20 18 22 26 27 28 35 35 35 40 41 42
10 10 10 11 13 14 15 18 22 26 29 31 31 31 30 29 29 29 29 28 28 26 23 21 19 19 17 16 15 15 14 16 20 20 20 21 20 19 17 14 13 13 13 12 12 10 10 11 11 12 12 12 13 12 12 12 12 12 13 13 13 12 11 11 11 11 12 13 14 15 15 14 14 16 21 24 18 15 19 23 24 29 36 36 36 40 41 40
10 10 10 11 11 13 14 15 17 21 25 29 30 31 30 29 29 29 29 29 29 28 27 24 21 20 19 18 17 16 16 15 19 20 21 22 22 22 20 17 14 14 13 12 12 10 10 11 11 12 12 12 13 12 13 12 12 13 13 13 13 12 12 11 12 12 12 12 13 14 14 15 14 14 22 26 21 18 20 21 24 31 39 41 41 42 40 40
12 10 10 10 11 12 13 14 15 17 21 25 29 30 30 29 28 28 29 29 29 28 28 27 24 22 20 19 18 17 16 15 17 18 19 20 19 21 21 18 15 14 14 13 12 11 10 11 11 12 12 12 12 13 12 12 12 13 13 14 14 13 12 11 12 12 12 12 12 13 14 15 15 14 21 26 23 22 25 26 27 34 41 42 42 43 42 42
14 12 11 10 11 11 12 13 14 14 17 21 25 28 29 28 28 28 28 28 29 28 28 28 27 25 22 19 18 17 16 17 18 18 18 17 17 18 18 17 14 14 14 14 13 11 10 11 12 12 12 12 13 13 12 12 13 13 13 13 13 13 12 11 12 13 12 12 12 13 14 16 19 18 20 27 27 29 34 34 34 38 41 42 42 43 43 43
16 15 13 12 11 11 12 13 13 14 15 17 22 26 28 28 28 28 28 28 28 28 28 28 28 27 25 21 19 17 17 20 20 19 18 17 16 17 17 16 14 13 14 14 14 13 11 11 12 12 13 13 13 12 12 12 13 13 13 13 13 13 13 12 12 13 13 13 12 13 13 18 24 19 19 28 32 35 37 36 37 39 40 42 44 43 42 43
17 17 16 15 13 12 12 13 13 14 14 15 18 23 27 28 28 28 28 28 29 28 28 28 28 27 26 24 21 17 18 21 20 19 19 19 17 16 16 17 15 13 13 13 13 13 11 12 13 13 13 13 12 13 12 12 12 13 14 14 14 13 13 13 13 13 13 12 12 13 13 20 24 18 18 29 34 36 36 36 37 38 40 43 45 43 42 43
17 17 17 17 16 14 12 13 14 14 14 15 16 19 23 26 28 29 29 28 28 28 27 27 28 28 26 25 22 18 18 20 21 22 21 21 18 14 13 16 15 14 13 12 12 12 11 12 13 14 14 14 14 13 13 13 13 14 14 15 15 14 13 13 13 13 13 13 12 13 12 16 20 18 24 32 34 36 36 36 37 38 41 43 44 43 43 45
16 16 16 17 17 17 15 14 14 15 14 14 15 16 19 23 26 27 28 27 27 27 27 27 28 28 28 26 22 20 18 19 22 24 23 22 18 13 11 14 14 13 13 12 11 11 12 14 15 15 16 16 15 15 14 14 14 14 15 15 15 14 14 13 14 14 13 13 12 13 13 13 16 17 28 35 35 36 36 35 37 38 41 41 43 44 44 47
15 16 16 16 16 17 17 16 15 16 15 15 15 15 17 20 23 25 26 26 25 25 26 28 29 29 29 25 21 21 18 18 21 23 22 20 17 12 10 12 13 14 13 12 11 12 15 17 17 16 16 16 16 15 15 15 15 15 14 15 15 15 14 13 14 14 14 14 13 14 13 13 14 14 25 36 35 35 35 34 36 38 40 41 43 45 46 48
15 16 16 16 15 15 16 16 16 16 16 15 15 15 15 18 21 23 24 24 23 23 24 27 30 31 30 26 21 21 20 20 20 19 18 17 15 11 10 12 13 13 12 11 12 14 17 17 16 18 17 16 17 16 15 15 16 15 15 16 16 15 14 14 15 15 14 14 14 14 14 14 13 13 25 35 34 34 33 33 35 37 41 42 44 47 48 48
15 16 17 17 16 15 14 16 16 16 16 16 16 15 16 17 21 23 23 23 23 24 26 28 31 32 30 26 23 21 23 24 20 17 16 15 14 11 10 11 12 11 12 13 15 17 18 18 17 19 18 16 16 16 16 16 16 16 16 17 17 16 16 15 16 15 15 15 15 15 14 15 14 17 29 35 34 34 33 33 35 37 41 44 46 48 48 46
15 16 16 17 18 17 15 15 15 16 17 17 17 17 18 20 23 25 26 26 27 29 31 31 32 33 29 26 24 22 23 25 21 19 17 14 13 12 11 12 12 12 14 16 18 19 19 19 19 18 18 18 17 16 16 17 16 17 17 18 20 18 18 18 17 17 17 17 17 17 16 16 16 22 32 34 34 34 32 33 34 36 42 45 47 49 48 46
13 15 16 17 19 20 19 17 16 16 16 17 18 19 19 21 25 28 29 31 33 36 36 34 31 29 25 23 24 22 23 25 21 20 18 14 13 13 12 13 13 16 19 19 19 20 19 19 18 17 18 18 17 16 16 18 17 18 19 19 20 20 20 20 20 20 19 18 17 17 18 16 17 25 32 33 34 33 32 32 33 36 41 45 48 50 48 46
14 14 15 17 18 20 21 21 19 17 16 16 18 18 20 24 27 30 33 35 37 38 37 36 31 26 23 22 22 22 23 24 22 19 17 15 13 13 14 15 18 20 20 20 20 20 19 18 17 17 17 17 17 17 16 18 19 19 20 20 20 20 20 21 21 21 20 19 18 17 17 15 18 27 31 32 33 32 31 32 34 37 41 46 50 51 49 49
15 14 14 15 17 19 21 22 22 21 19 17 17 18 20 24 27 30 33 33 33 32 31 33 31 27 25 24 23 24 24 24 22 20 17 16 14 14 15 18 20 21 21 21 20 20 18 17 17 17 18 18 20 21 20 21 22 21 21 21 20 20 20 21 23 23 22 22 20 18 17 14 18 27 31 31 33 31 30 33 35 38 42 48 52 53 53 52
15 16 15 15 16 17 19 21 23 24 22 20 18 18 20 23 25 29 29 27 28 29 28 28 27 26 26 25 24 25 26 25 24 21 19 17 15 15 17 20 22 21 23 23 21 20 18 17 18 18 20 22 24 25 24 23 23 22 22 21 21 21 21 23 24 25 24 23 20 19 17 15 19 28 32 31 31 31 32 34 36 40 45 51 55 56 55 54
13 14 15 16 16 17 17 19 21 23 24 24 21 19 22 24 25 27 27 25 25 27 27 25 26 25 25 24 24 26 28 27 25 21 20 18 16 16 18 20 21 22 24 23 21 20 19 18 18 20 23 25 25 24 23 22 23 23 22 23 23 21 22 24 25 25 25 22 20 18 17 18 23 29 33 33 32 34 36 37 40 45 51 56 56 57 56 55
12 12 13 14 16 16 18 18 19 20 22 25 25 23 25 24 25 28 30 27 24 24 25 24 25 25 25 24 23 25 28 28 27 23 21 19 17 17 18 19 20 22 23 21 20 20 20 18 19 22 23 23 23 24 22 21 23 24 23 23 22 22 23 24 25 26 26 25 22 18 19 24 28 32 36 36 37 42 42 42 47 52 55 57 58 58 58 57
11 11 11 12 13 14 17 17 17 19 21 24 25 26 28 26 27 32 33 30 26 25 24 23 24 25 25 23 21 24 27 28 27 24 21 20 18 18 19 19 21 21 21 21 21 20 19 20 21 23 23 22 23 25 23 20 22 26 27 24 21 22 23 23 25 27 26 26 24 21 22 26 30 35 40 39 40 46 47 47 52 56 57 59 59 59 59 56
12 11 10 11 10 12 14 15 17 19 20 21 23 28 30 29 31 33 33 33 29 26 25 24 24 25 25 22 21 23 26 27 26 24 22 21 19 19 19 19 20 20 21 21 21 20 20 21 23 25 25 25 25 25 24 22 23 27 28 25 23 24 24 24 27 27 24 25 26 24 25 27 28 32 40 42 43 48 51 50 51 55 58 58 57 58 58 55
15 13 12 11 10 10 11 13 16 17 17 18 21 26 28 30 35 35 34 36 31 28 31 30 27 26 25 24 22 23 27 28 25 23 23 22 21 21 20 20 19 20 22 21 22 22 21 22 26 29 30 29 26 25 26 25 25 26 28 27 25 25 26 26 27 26 25 28 32 30 27 29 28 28 34 40 44 48 51 50 49 52 56 54 54 56 56 55
16 15 14 13 11 10 10 11 14 15 16 18 21 25 27 31 37 37 36 35 32 32 35 34 31 28 27 25 24 25 28 30 26 24 24 24 23 22 21 22 20 20 23 23 23 24 24 26 30 32 32 31 27 25 27 25 24 26 30 29 25 25 26 28 27 27 28 32 36 35 29 30 31 30 31 35 41 45 47 48 48 51 53 53 55 57 57 56
20 18 16 15 14 12 10 10 11 13 15 18 21 26 29 33 36 39 39 34 32 37 39 37 34 31 29 28 26 27 30 31 29 28 27 25 24 23 22 23 21 21 23 23 24 26 29 31 32 32 31 29 26 26 28 25 22 26 30 29 26 25 27 28 27 29 32 32 35 36 33 31 33 33 33 33 36 40 42 44 45 48 53 54 56 57 58 57
22 21 20 18 16 14 11 10 9 11 17 21 24 28 32 35 35 38 41 35 31 37 39 40 39 34 32 31 30 30 31 32 31 31 30 27 26 24 24 23 22 23 25 24 25 29 31 30 29 30 28 27 27 29 29 26 24 28 29 28 27 27 28 29 28 30 33 31 32 38 37 33 32 33 32 33 34 35 38 39 40 44 50 54 56 58 60 59
20 20 21 21 19 17 13 11 10 10 15 21 26 29 31 36 38 39 41 36 34 37 36 40 44 41 37 35 32 32 33 34 34 34 32 29 27 26 25 26 25 26 27 27 28 30 30 29 30 29 27 27 28 30 29 27 27 29 27 25 25 26 27 29 30 30 31 32 33 38 41 36 33 33 33 35 36 36 36 37 36 38 44 50 55 59 63 62
18 18 19 20 21 20 17 14 12 12 13 18 26 29 29 36 42 40 38 33 33 38 38 39 44 44 43 41 35 32 35 37 36 36 35 32 30 29 28 29 28 29 31 29 29 32 32 30 29 28 27 27 27 27 28 28 28 28 27 26 24 26 27 27 30 30 31 34 36 39 43 39 34 34 35 37 39 39 39 39 38 38 41 46 53 59 62 62
14 15 16 18 20 21 20 18 15 13 15 19 27 28 28 39 42 37 35 31 30 38 39 39 43 43 45 45 39 35 36 39 38 38 37 35 33 32 30 32 32 32 33 31 31 34 33 30 29 28 28 27 25 26 28 28 28 27 27 27 26 27 29 28 30 31 31 34 39 42 43 39 36 36 38 40 41 43 44 44 43 44 43 44 49 56 60 60
9 10 12 15 19 21 22 21 18 14 16 20 24 25 30 40 41 34 32 29 32 40 41 40 42 42 43 45 44 42 40 42 41 40 40 39 38 37 35 36 37 36 36 36 34 34 33 32 31 28 28 28 26 27 29 30 29 27 27 28 27 29 31 31 31 33 31 32 38 43 43 40 38 38 41 43 44 46 49 50 51 51 49 47 49 54 58 61
5 6 8 12 18 21 22 23 21 17 16 17 20 26 33 35 34 33 32 28 30 39 42 41 43 43 43 43 45 46 46 48 47 44 44 44 43 43 42 41 42 42 42 40 37 35 34 33 32 29 29 29 28 27 29 31 32 32 31 29 28 30 31 31 31 30 31 32 37 41 41 41 40 41 43 45 46 50 52 54 56 55 53 53 54 56 58 61
4 6 8 11 15 19 21 22 24 22 18 16 20 28 32 28 27 32 35 31 28 30 33 37 42 44 45 44 44 46 47 50 51 49 48 47 46 47 47 45 45 45 45 44 42 39 35 34 32 31 31 30 30 31 29 30 34 35 33 31 31 31 31 33 34 34 34 35 37 38 40 41 42 45 45 46 50 52 53 55 56 55 55 55 55 56 58 61
4 7 10 12 14 17 19 21 24 25 22 20 23 28 27 25 25 29 33 33 29 26 25 28 35 42 46 46 47 46 47 49 51 50 51 50 49 49 48 48 46 46 46 46 47 45 40 39 37 34 32 30 31 32 31 31 34 35 34 33 33 34 34 37 39 40 38 36 36 37 39 40 43 46 47 49 53 54 55 56 56 55 55 54 55 55 54 56
6 10 12 13 14 14 15 17 20 24 27 26 28 29 24 22 25 27 32 34 33 29 26 25 30 39 46 49 49 49 49 50 50 49 51 51 51 50 50 49 46 46 46 47 50 50 46 45 43 38 35 33 31 32 32 33 34 35 35 35 36 35 36 37 38 40 38 35 35 37 38 39 40 42 44 47 51 53 53 54 54 54 53 52 52 51 49 49
8 12 13 14 16 14 13 15 15 20 30 32 32 32 25 19 22 27 31 33 34 34 32 29 29 35 44 51 52 52 52 53 53 52 51 51 52 51 50 49 48 47 48 48 50 52 49 47 46 42 39 37 34 33 34 34 34 34 35 36 37 37 37 37 38 39 37 36 37 37 38 37 34 35 38 38 40 44 47 48 48 48 48 48 50 50 48 46
12 14 15 17 17 14 14 16 12 16 29 35 33 32 26 19 21 27 30 31 33 35 34 31 29 32 39 46 50 53 53 55 57 57 54 52 52 53 52 51 50 50 51 50 50 53 54 52 49 45 42 40 38 36 36 36 36 35 35 36 37 38 38 38 37 37 36 37 38 37 37 36 33 36 38 35 35 39 43 46 46 47 49 50 53 55 52 49
14 14 18 21 18 16 17 18 15 17 27 35 37 34 28 22 22 24 26 28 29 31 33 34 32 33 38 42 45 49 54 57 58 60 61 58 54 54 54 52 52 51 52 52 52 55 56 53 51 48 44 41 40 38 37 37 38 39 38 38 38 38 37 37 38 37 36 37 37 37 37 36 37 42 43 42 41 41 44 48 48 51 54 53 56 60 57 53
16 18 22 22 18 20 23 22 24 26 29 34 40 39 31 25 24 23 24 25 25 26 29 31 32 34 38 41 44 47 51 56 57 58 62 63 60 58 56 54 53 53 53 52 53 56 56 53 54 52 46 42 41 40 40 39 38 39 40 39 39 40 39 38 39 39 38 37 38 37 37 39 44 47 48 49 49 47 47 50 52 54 56 57 61 64 62 58
18 21 24 23 23 28 28 28 34 37 34 33 38 41 35 27 25 25 24 24 25 24 25 28 31 33 36 41 46 48 49 53 54 54 56 60 64 65 61 57 56 55 56 55 54 57 59 58 56 53 47 44 43 42 42 41 39 39 40 41 41 41 41 40 40 43 42 41 41 40 39 45 49 48 48 52 53 52 51 52 54 56 58 62 67 67 65 65
21 24 28 29 32 35 30 29 35 39 36 34 38 43 41 32 26 26 26 25 25 24 24 25 27 30 33 37 43 48 50 51 52 53 53 55 58 62 63 62 60 58 58 58 57 59 61 59 56 52 48 45 43 43 43 42 41 40 41 43 43 41 42 42 43 46 45 44 43 41 40 47 50 48 49 52 54 56 56 54 55 57 60 64 68 66 64 65
25 29 33 35 39 39 34 33 36 39 40 39 41 45 44 37 29 26 27 26 26 27 26 25 26 28 32 36 42 48 51 51 51 53 54 54 52 52 56 59 61 63 63 61 60 59 57 58 57 54 51 48 45 44 43 42 42 43 44 47 47 46 46 46 46 45 44 44 44 39 40 47 49 48 49 51 52 54 56 56 54 56 63 69 72 72 68 67
28 33 37 40 40 40 43 45 44 45 44 42 42 46 47 42 31 25 28 30 28 28 30 29 28 29 32 36 41 46 50 51 53 55 56 55 52 49 51 55 60 67 69 63 60 59 59 61 60 55 52 51 48 45 45 45 45 45 45 48 49 49 48 46 46 44 43 45 44 39 42 48 48 49 50 51 52 52 53 54 52 56 64 68 70 72 70 68
30 37 41 42 43 46 54 60 59 55 49 41 42 48 51 51 40 29 30 35 33 31 31 31 29 29 32 36 40 44 49 51 54 58 59 57 54 52 51 53 57 64 68 65 61 63 65 63 60 58 56 54 53 51 50 50 51 50 50 51 53 54 53 48 47 47 47 47 47 45 47 51 51 52 53 53 54 52 52 52 52 58 64 62 61 64 64 63
31 39 42 44 52 60 64 65 68 70 62 50 49 54 56 56 50 39 34 36 36 34 32 31 30 31 33 37 40 44 49 52 54 59 62 61 60 57 54 53 55 59 63 64 65 70 74 68 62 61 59 58 58 57 55 53 54 56 58 58 58 58 57 52 49 52 52 48 49 52 54 55 55 55 56 56 55 53 53 55 57 61 63 60 59 61 61 59
29 37 40 44 54 65 72 73 76 82 79 64 56 59 61 58 52 45 39 37 36 35 35 34 31 31 34 38 43 47 51 54 56 59 63 63 63 61 57 56 57 58 59 61 63 70 77 76 71 67 63 61 61 60 59 56 56 58 59 60 60 59 58 55 54 57 56 51 52 57 59 60 60 59 59 59 57 57 58 61 64 65 62 58 58 60 60 58
30 34 38 39 44 58 78 88 88 90 91 80 67 61 63 63 58 49 43 43 43 39 39 41 38 34 35 41 46 49 52 55 57 59 61 64 65 65 62 60 60 59 60 62 61 62 68 73 76 74 71 68 67 65 63 62 60 60 60 59 59 59 58 56 56 56 55 54 56 58 61 64 63 62 63 63 61 62 65 66 66 64 61 56 55 56 57 57
32 34 37 38 37 45 64 81 90 92 91 90 83 71 65 68 69 60 50 49 53 49 45 47 46 42 39 42 46 49 51 53 55 57 59 63 65 64 64 62 59 58 60 63 62 59 60 66 71 73 75 74 73 71 70 68 67 65 63 61 60 61 60 58 57 56 54 56 58 58 63 67 64 62 65 66 65 66 68 69 67 65 62 58 55 53 53 53
29 32 35 37 37 41 49 63 83 91 89 92 95 88 78 77 77 71 61 56 57 56 52 51 52 50 46 46 47 49 51 53 54 53 54 57 59 58 59 58 56 56 57 60 62 60 60 64 66 69 72 73 73 75 75 74 72 69 67 67 67 67 66 64 63 62 60 60 59 60 65 68 65 64 66 67 66 67 68 70 69 67 65 62 58 54 51 50
24 26 28 32 36 39 43 51 67 79 82 87 93 96 93 91 87 82 76 69 62 58 57 55 55 56 56 57 56 53 54 55 55 55 54 54 53 53 53 53 52 53 53 54 58 60 60 61 62 65 69 70 72 74 76 76 75 71 71 73 73 72 71 70 69 68 68 65 61 60 63 65 64 64 66 66 65 65 68 68 68 69 68 64 59 55 53 52